DW2373 Thessaloniki GR current weather conditions

sailwx.info

Wind from 158 at 0 knots gusting 2

Air temperature 6.7° C
Dewpoint 3.6° C

Last reported at 2015-Jan-28 00:03 UTC.
Time now 2015-Jan-28 01:23 UTC

Location: N 40°31' E 022°58'.
View on Google Maps.

See reports from other nearby stations

  
Tides and Currents Weather Stations Pressure Air Temp Water Temp Dewpoint Dewpoint Depression Visibility Wind Speed Wind Dir Waves Ship Positions
date/time (UTC)wind fromknots sea level pressurealtimeterstation pressurevisibilityair tempwater tempwave heightnotes
2015-Jan-28 00:03 158 0 gusting 2 6.7
2015-Jan-27 23:03 106 7.2
2015-Jan-27 22:03 158 7.2
2015-Jan-27 21:03 207 1 gusting 2 7.2
2015-Jan-27 20:03 072 0 gusting 2 7.8
2015-Jan-27 19:03 124 0 gusting 2 8.3
2015-Jan-27 18:03 180 8.3
2015-Jan-27 17:03 209 1 gusting 4 8.9
2015-Jan-27 16:03 059 9.4
2015-Jan-27 15:03 202 10.0
2015-Jan-27 14:03 218 0 gusting 4 10.0
2015-Jan-27 13:03 194 0 gusting 4 9.4
2015-Jan-27 12:03 278 8.9
2015-Jan-27 11:03 271 2 gusting 2 8.9
2015-Jan-27 10:03 260 7.8
2015-Jan-27 09:03 292 7.8
2015-Jan-27 08:03 128 0 gusting 2 7.2
2015-Jan-27 07:03 164 0 gusting 2 7.2
2015-Jan-27 05:03 140 0 gusting 4 7.8
2015-Jan-27 04:03 164 0 gusting 2 7.8
2015-Jan-27 03:03 157 0 gusting 4 7.8
2015-Jan-27 02:03 137 1 gusting 4 7.8
2015-Jan-27 01:03 154 1 gusting 4 7.8
2015-Jan-27 00:03 132 0 gusting 2 7.8
2015-Jan-26 23:03 022 7.8
2015-Jan-26 22:03 248 7.8
2015-Jan-26 21:03 198 7.8
2015-Jan-26 20:03 122 0 gusting 2 7.8
2015-Jan-26 19:03 106 0 gusting 2 7.2
2015-Jan-26 18:03 139 1 gusting 5 7.8
2015-Jan-26 17:03 112 1 gusting 2 7.8
2015-Jan-26 16:03 104 1 gusting 10 7.8
2015-Jan-26 15:03 324 3 gusting 6 8.3
2015-Jan-26 14:03 316 2 gusting 6 9.4
2015-Jan-26 13:03 337 4 gusting 6 10.0
2015-Jan-26 12:03 323 2 gusting 5 11.1
2015-Jan-26 11:03 244 11.1
2015-Jan-26 10:03 045 11.1
2015-Jan-26 09:03 165 0 gusting 5 10.0
2015-Jan-26 08:03 133 0 gusting 4 9.4
2015-Jan-26 07:03 310 8.9
2015-Jan-26 05:03 008 1 gusting 5 7.8
2015-Jan-26 04:03 049 0 gusting 6 7.8
2015-Jan-26 03:03 345 2 gusting 6 7.8
2015-Jan-26 02:03 329 2 gusting 6 7.8
2015-Jan-26 01:03 012 1 gusting 6 7.8